Location: Carrières
(48.9495°N, 2.0407°E)
Time: 13:27:23
(UTC+00:00)

Tiros 1 despin weight - Pass Details

Date: 24 April 2024
Orbit: 578 x 621 km, 48.2° (Epoch: 25 May)

Event Time Altitude Azimuth Distance (km) Brightness Sun altitude
Rises 12:09:29 0° 243° (WSW) 2,815 ? 53.9°
Reaches altitude 10° 12:11:46 10° 240° (WSW) 1,923 ? 53.9°
Maximum altitude 12:16:06 58° 161° (SSE) 702 ? 53.8°
Drops below altitude 10° 12:20:31 10° 83° (E) 1,956 ? 53.6°
Sets 12:22:51 0° 80° (E) 2,869 ? 53.5°
